| time (UTC) | temp F | wind direction | speed MPH | gust MPH | rain 1hr in | rain 24hr in | rain mn in | humidity % | barometer mb |
| 20260505193101 | 80 | 219 | 7.0 | 18.0 | 0.00 | 0.00 | 0.00 | 42 | 1014.7 |
| 20260505191542 | 79 | 300 | 11.0 | 17.0 | 0.00 | 0.00 | 0.00 | 44 | 1015.0 |
| 20260505190042 | 80 | 294 | 8.0 | 16.0 | 0.00 | 0.00 | 0.00 | 42 | 1015.2 |
| 20260505184535 | 79 | 267 | 6.0 | 15.0 | 0.00 | 0.00 | 0.00 | 44 | 1015.3 |
| 20260505183040 | 78 | 238 | 9.0 | 19.0 | 0.00 | 0.00 | 0.00 | 43 | 1015.5 |
| 20260505181541 | 78 | 275 | 6.0 | 21.0 | 0.00 | 0.00 | 0.00 | 43 | 1015.7 |
| 20260505180044 | 77 | 234 | 11.0 | 18.0 | 0.00 | 0.00 | 0.00 | 45 | 1015.8 |
| 20260505174538 | 78 | 284 | 8.0 | 18.0 | 0.00 | 0.00 | 0.00 | 43 | 1015.8 |
| 20260505173041 | 78 | 337 | 3.0 | 18.0 | 0.00 | 0.00 | 0.00 | 45 | 1015.9 |
| 20260505171548 | 78 | 258 | 5.0 | 19.0 | 0.00 | 0.00 | 0.00 | 47 | 1015.9 |
| 20260505170042 | 77 | 242 | 10.0 | 17.0 | 0.00 | 0.00 | 0.00 | 48 | 1016.0 |
| 20260505164543 | 77 | 311 | 2.0 | 13.0 | 0.00 | 0.00 | 0.00 | 49 | 1016.2 |
| 20260505163045 | 75 | 235 | 8.0 | 14.0 | 0.00 | 0.00 | 0.00 | 51 | 1016.3 |
| 20260505161536 | 75 | 319 | 6.0 | 14.0 | 0.00 | 0.00 | 0.00 | 52 | 1016.3 |
| 20260505153047 | 73 | 279 | 6.0 | 11.0 | 0.00 | 0.00 | 0.00 | 57 | 1016.7 |
| 20260505151540 | 73 | 11 | 4.0 | 14.0 | 0.00 | 0.00 | 0.00 | 56 | 1016.8 |
| 20260505124540 | 64 | 327 | 3.0 | 15.0 | 0.00 | 0.00 | 0.00 | 65 | 1017.1 |
| 20260505123048 | 62 | 269 | 4.0 | 13.0 | 0.00 | 0.00 | 0.00 | 69 | 1017.0 |
| 20260505121533 | 61 | 317 | 5.0 | 10.0 | 0.00 | 0.00 | 0.00 | 70 | 1017.0 |
| 20260505120052 | 60 | 19 | 3.0 | 8.0 | 0.00 | 0.00 | 0.00 | 71 | 1016.8 |
| 20260505114543 | 59 | 297 | 2.0 | 5.0 | 0.00 | 0.00 | 0.00 | 71 | 1016.7 |
| 20260505113040 | 58 | 290 | 2.0 | 7.0 | 0.00 | 0.00 | 0.00 | 72 | 1016.6 |
| 20260505111536 | 59 | 288 | 2.0 | 6.0 | 0.00 | 0.00 | 0.00 | 74 | 1016.5 |
| 20260505101540 | 56 | 307 | 2.0 | 5.0 | 0.00 | 0.00 | 0.00 | 74 | 1015.7 |
| 20260505100038 | 56 | 302 | 2.0 | 5.0 | 0.00 | 0.00 | 0.00 | 74 | 1015.8 |
| 20260505094534 | 56 | 283 | 3.0 | 7.0 | 0.00 | 0.00 | 0.00 | 73 | 1015.5 |
| 20260505093036 | 57 | 311 | 3.0 | 7.0 | 0.00 | 0.00 | 0.00 | 73 | 1015.5 |
| 20260505091551 | 57 | 292 | 3.0 | 6.0 | 0.00 | 0.00 | 0.00 | 73 | 1015.3 |
| 20260505090041 | 57 | 275 | 2.0 | 6.0 | 0.00 | 0.00 | 0.00 | 72 | 1015.3 |
| 20260505084555 | 57 | 304 | 3.0 | 6.0 | 0.00 | 0.00 | 0.00 | 72 | 1015.2 |
| 20260505083055 | 58 | 299 | 3.0 | 7.0 | 0.00 | 0.00 | 0.00 | 71 | 1015.1 |
| 20260505081551 | 58 | 317 | 3.0 | 7.0 | 0.00 | 0.00 | 0.00 | 71 | 1015.1 |
| 20260505080055 | 58 | 0 | 2.0 | 5.0 | 0.00 | 0.00 | 0.00 | 71 | 1015.0 |
| 20260505074541 | 59 | 296 | 2.0 | 6.0 | 0.00 | 0.00 | 0.00 | 71 | 1014.9 |
| 20260505073050 | 59 | 316 | 2.0 | 7.0 | 0.00 | 0.00 | 0.00 | 70 | 1014.8 |
| 20260505071545 | 59 | 315 | 2.0 | 7.0 | 0.00 | 0.00 | 0.00 | 70 | 1014.7 |
| 20260505070129 | 60 | 288 | 1.0 | 7.0 | 0.00 | 0.00 | 0.00 | 69 | 1014.7 |
| 20260505064536 | 60 | 303 | 2.0 | 7.0 | 0.00 | 0.00 | 0.00 | 69 | 1014.7 |
| 20260505063049 | 61 | 310 | 3.0 | 8.0 | 0.00 | 0.00 | 0.00 | 68 | 1014.6 |
| 20260505061539 | 61 | 284 | 5.0 | 10.0 | 0.00 | 0.00 | 0.00 | 68 | 1014.7 |
| 20260505060055 | 61 | 203 | 4.0 | 8.0 | 0.00 | 0.00 | 0.00 | 68 | 1014.8 |
| 20260505054537 | 61 | 281 | 3.0 | 7.0 | 0.00 | 0.00 | 0.00 | 67 | 1014.7 |
| 20260505053044 | 62 | 318 | 4.0 | 9.0 | 0.00 | 0.00 | 0.00 | 67 | 1015.0 |
| 20260505051543 | 62 | 275 | 3.0 | 9.0 | 0.00 | 0.00 | 0.00 | 67 | 1015.1 |
| 20260505041545 | 64 | 281 | 7.0 | 15.0 | 0.00 | 0.00 | 0.00 | 64 | 1015.0 |
| 20260505040048 | 64 | 295 | 7.0 | 15.0 | 0.00 | 0.00 | 0.00 | 64 | 1015.1 |
| 20260505034539 | 65 | 273 | 6.0 | 13.0 | 0.00 | 0.00 | 0.00 | 63 | 1015.1 |
| 20260505033037 | 65 | 298 | 7.0 | 12.0 | 0.00 | 0.00 | 0.00 | 62 | 1015.0 |
| 20260505031536 | 66 | 302 | 6.0 | 15.0 | 0.00 | 0.00 | 0.00 | 62 | 1015.1 |
| 20260505030044 | 66 | 290 | 9.0 | 17.0 | 0.00 | 0.00 | 0.00 | 61 | 1015.1 |
| 20260505024548 | 67 | 295 | 7.0 | 13.0 | 0.00 | 0.00 | 0.00 | 61 | 1015.0 |
| 20260505023041 | 67 | 272 | 6.0 | 17.0 | 0.00 | 0.00 | 0.00 | 60 | 1015.0 |
| 20260505021537 | 68 | 302 | 8.0 | 15.0 | 0.00 | 0.00 | 0.00 | 59 | 1014.8 |
| 20260505020040 | 68 | 282 | 11.0 | 18.0 | 0.00 | 0.00 | 0.00 | 56 | 1014.7 |
| 20260505014602 | 69 | 273 | 5.0 | 11.0 | 0.00 | 0.00 | 0.00 | 47 | 1014.5 |
| 20260505013048 | 70 | 273 | 5.0 | 10.0 | 0.00 | 0.00 | 0.00 | 45 | 1014.3 |
| 20260505011543 | 70 | 304 | 3.0 | 10.0 | 0.00 | 0.00 | 0.00 | 45 | 1014.1 |
| 20260505010052 | 71 | 263 | 5.0 | 10.0 | 0.00 | 0.00 | 0.00 | 44 | 1013.9 |
| 20260505004546 | 71 | 292 | 3.0 | 9.0 | 0.00 | 0.00 | 0.00 | 43 | 1013.6 |
| 20260505003054 | 72 | 285 | 3.0 | 9.0 | 0.00 | 0.00 | 0.00 | 42 | 1013.4 |
| 20260505001542 | 73 | 301 | 3.0 | 9.0 | 0.00 | 0.00 | 0.00 | 41 | 1013.4 |
| 20260505000040 | 74 | 311 | 4.0 | 7.0 | 0.00 | 0.00 | 0.00 | 40 | 1013.2 |
| 20260504234538 | 75 | 283 | 5.0 | 13.0 | 0.00 | 0.00 | 0.00 | 38 | 1013.2 |
| 20260504233037 | 76 | 237 | 5.0 | 13.0 | 0.00 | 0.00 | 0.00 | 37 | 1013.0 |
| 20260504231533 | 77 | 314 | 4.0 | 9.0 | 0.00 | 0.00 | 0.00 | 34 | 1012.8 |
| 20260504230035 | 78 | 296 | 3.0 | 13.0 | 0.00 | 0.00 | 0.00 | 32 | 1012.8 |
| 20260504224541 | 78 | 259 | 4.0 | 13.0 | 0.00 | 0.00 | 0.00 | 31 | 1012.9 |
| 20260504223055 | 78 | 279 | 4.0 | 11.0 | 0.00 | 0.00 | 0.00 | 31 | 1012.9 |
| 20260504221534 | 78 | 285 | 7.0 | 17.0 | 0.00 | 0.00 | 0.00 | 30 | 1012.9 |
| 20260504220036 | 79 | 313 | 6.0 | 13.0 | 0.00 | 0.00 | 0.00 | 30 | 1012.9 |
| 20260504214542 | 78 | 275 | 6.0 | 13.0 | 0.00 | 0.00 | 0.00 | 32 | 1012.9 |
| 20260504213043 | 79 | 276 | 8.0 | 14.0 | 0.00 | 0.00 | 0.00 | 31 | 1012.9 |
| 20260504211604 | 79 | 286 | 4.0 | 15.0 | 0.00 | 0.00 | 0.00 | 32 | 1013.1 |
| 20260504210043 | 78 | 298 | 6.0 | 16.0 | 0.00 | 0.00 | 0.00 | 33 | 1013.0 |
| 20260504204535 | 78 | 320 | 7.0 | 16.0 | 0.00 | 0.00 | 0.00 | 32 | 1013.2 |
| 20260504203033 | 78 | 296 | 9.0 | 16.0 | 0.00 | 0.00 | 0.00 | 33 | 1013.3 |
| 20260504201542 | 78 | 278 | 4.0 | 11.0 | 0.00 | 0.00 | 0.00 | 34 | 1013.4 |
| 20260504200040 | 77 | 271 | 8.0 | 15.0 | 0.00 | 0.00 | 0.00 | 34 | 1013.5 |
| 20260504194542 | 78 | 260 | 2.0 | 13.0 | 0.00 | 0.00 | 0.00 | 32 | 1013.6 |